Year,Month,Day,Hour,Minute,Value (Times are PST for temperature in C)
2021,04,26,12,47,12.90
2021,04,26,12,48,12.90
2021,04,26,12,49,12.90
2021,04,26,12,50,12.80
2021,04,26,12,51,12.80
2021,04,26,12,52,12.80
2021,04,26,12,53,12.80
2021,04,26,12,54,12.70
2021,04,26,12,55,12.50
2021,04,26,12,56,12.40
2021,04,26,12,57,12.40
2021,04,26,12,58,12.40
2021,04,26,12,59,12.40
2021,04,26,13,00,12.40
2021,04,26,13,01,12.40
2021,04,26,13,02,12.50
2021,04,26,13,03,12.60
2021,04,26,13,04,12.60
2021,04,26,13,05,12.50
2021,04,26,13,06,12.50
2021,04,26,13,07,12.50
2021,04,26,13,08,12.60
2021,04,26,13,09,12.60
2021,04,26,13,10,12.60
2021,04,26,13,11,12.50
2021,04,26,13,12,12.40
2021,04,26,13,13,12.50
2021,04,26,13,14,12.50
2021,04,26,13,15,12.60
2021,04,26,13,16,12.60
2021,04,26,13,17,12.70
2021,04,26,13,18,12.80
2021,04,26,13,19,12.90
2021,04,26,13,20,12.90
2021,04,26,13,21,13.00
2021,04,26,13,22,13.00
2021,04,26,13,23,13.10
2021,04,26,13,24,13.20
2021,04,26,13,25,13.20
2021,04,26,13,26,13.40
2021,04,26,13,27,13.50
2021,04,26,13,28,13.60
2021,04,26,13,29,13.70
2021,04,26,13,30,13.90
2021,04,26,13,31,14.00
2021,04,26,13,32,14.10
2021,04,26,13,33,14.20
2021,04,26,13,34,14.30
2021,04,26,13,35,14.40
2021,04,26,13,36,14.50
2021,04,26,13,37,14.40
2021,04,26,13,38,14.40
2021,04,26,13,39,14.40
2021,04,26,13,40,14.50
2021,04,26,13,41,14.50
2021,04,26,13,42,14.50
2021,04,26,13,43,14.60
2021,04,26,13,44,14.60
2021,04,26,13,45,14.60
2021,04,26,13,46,14.70
2021,04,26,13,47,14.70
2021,04,26,13,48,14.80
2021,04,26,13,49,14.80
2021,04,26,13,50,14.90
2021,04,26,13,51,15.00
2021,04,26,13,52,15.00
2021,04,26,13,53,15.00
2021,04,26,13,54,15.00
2021,04,26,13,55,15.00
2021,04,26,13,56,15.00
2021,04,26,13,57,15.00
2021,04,26,13,58,15.00
2021,04,26,13,59,15.00
2021,04,26,14,00,14.90
2021,04,26,14,01,14.90
2021,04,26,14,02,14.90
2021,04,26,14,03,15.00
2021,04,26,14,04,15.00
2021,04,26,14,05,15.10
2021,04,26,14,06,15.10
2021,04,26,14,07,15.10
2021,04,26,14,08,15.00
2021,04,26,14,09,15.00
2021,04,26,14,10,15.10
2021,04,26,14,11,15.20
2021,04,26,14,12,15.20
2021,04,26,14,13,15.30
2021,04,26,14,14,15.40
2021,04,26,14,15,15.40
2021,04,26,14,16,15.40
2021,04,26,14,17,15.50
2021,04,26,14,18,15.50
2021,04,26,14,19,15.40
2021,04,26,14,20,15.40
2021,04,26,14,21,15.40
2021,04,26,14,22,15.40
2021,04,26,14,23,15.40
2021,04,26,14,24,15.40
2021,04,26,14,25,15.40
2021,04,26,14,26,15.30
2021,04,26,14,27,15.30
2021,04,26,14,28,15.20
2021,04,26,14,29,15.20
2021,04,26,14,30,15.20
2021,04,26,14,31,15.20
2021,04,26,14,32,15.30
2021,04,26,14,33,15.30
2021,04,26,14,34,15.30
2021,04,26,14,35,15.30
2021,04,26,14,36,15.30
2021,04,26,14,37,15.30
2021,04,26,14,38,15.20
2021,04,26,14,39,15.20
2021,04,26,14,40,15.20
2021,04,26,14,41,15.30
2021,04,26,14,42,15.30
2021,04,26,14,43,15.30
2021,04,26,14,44,15.40
2021,04,26,14,45,15.40
2021,04,26,14,46,15.30
2021,04,26,14,47,15.40
2021,04,26,14,48,15.40
2021,04,26,14,49,15.40
2021,04,26,14,50,15.30
2021,04,26,14,51,15.30
2021,04,26,14,52,15.40
2021,04,26,14,53,15.40
2021,04,26,14,54,15.40
2021,04,26,14,55,15.40
2021,04,26,14,56,15.40
2021,04,26,14,57,15.40
2021,04,26,14,58,15.50
2021,04,26,14,59,15.60
2021,04,26,15,00,15.70
2021,04,26,15,01,15.80
2021,04,26,15,02,15.90
2021,04,26,15,03,16.00
2021,04,26,15,04,16.10
2021,04,26,15,05,16.10
2021,04,26,15,06,16.10
2021,04,26,15,07,16.10
2021,04,26,15,08,16.00
2021,04,26,15,09,16.00
2021,04,26,15,10,15.90
2021,04,26,15,11,15.80
2021,04,26,15,12,15.80
2021,04,26,15,13,15.70
2021,04,26,15,14,15.70
2021,04,26,15,15,15.70
2021,04,26,15,16,15.70
2021,04,26,15,17,15.80
2021,04,26,15,18,15.80
2021,04,26,15,19,15.70
2021,04,26,15,20,15.70
2021,04,26,15,21,15.80
2021,04,26,15,22,15.80
2021,04,26,15,23,16.00
2021,04,26,15,24,16.10
2021,04,26,15,25,16.20
2021,04,26,15,26,16.20
2021,04,26,15,27,16.20
2021,04,26,15,28,16.30
2021,04,26,15,29,16.30
2021,04,26,15,30,16.30
2021,04,26,15,31,16.30
2021,04,26,15,32,16.30
2021,04,26,15,33,16.30
2021,04,26,15,34,16.20
2021,04,26,15,35,16.20
2021,04,26,15,36,16.20
2021,04,26,15,37,16.20
2021,04,26,15,38,16.20
2021,04,26,15,39,16.30
2021,04,26,15,40,16.20
2021,04,26,15,41,16.20
2021,04,26,15,42,16.20
2021,04,26,15,43,16.20
2021,04,26,15,44,16.20
2021,04,26,15,45,16.20
2021,04,26,15,46,16.20
2021,04,26,15,47,16.20
2021,04,26,15,48,16.10
2021,04,26,15,49,16.00
2021,04,26,15,50,16.00
2021,04,26,15,51,16.00
2021,04,26,15,52,16.00
2021,04,26,15,53,16.00
2021,04,26,15,54,15.90
2021,04,26,15,55,15.80
2021,04,26,15,56,15.80
2021,04,26,15,57,15.70
2021,04,26,15,58,15.70
2021,04,26,15,59,15.60
2021,04,26,16,00,15.60
2021,04,26,16,01,15.50
2021,04,26,16,02,15.50
2021,04,26,16,03,15.50
2021,04,26,16,04,15.50
2021,04,26,16,05,15.50
2021,04,26,16,06,15.50
2021,04,26,16,07,15.50
2021,04,26,16,08,15.60
2021,04,26,16,09,15.60
2021,04,26,16,10,15.60
2021,04,26,16,11,15.60
2021,04,26,16,12,15.60
2021,04,26,16,13,15.60
2021,04,26,16,14,15.70
2021,04,26,16,15,15.70
2021,04,26,16,16,15.60
2021,04,26,16,17,15.60
2021,04,26,16,18,15.60
2021,04,26,16,19,15.70
2021,04,26,16,20,15.70
2021,04,26,16,21,15.70
2021,04,26,16,22,15.70
2021,04,26,16,23,15.70
2021,04,26,16,24,15.70
2021,04,26,16,25,15.70
2021,04,26,16,26,15.70
2021,04,26,16,27,15.60
2021,04,26,16,28,15.60
2021,04,26,16,29,15.70
2021,04,26,16,30,15.70
2021,04,26,16,31,15.70
2021,04,26,16,32,15.70
2021,04,26,16,33,15.70
2021,04,26,16,34,15.70
2021,04,26,16,35,15.70
2021,04,26,16,36,15.70
2021,04,26,16,37,15.70
2021,04,26,16,38,15.80
2021,04,26,16,39,15.80
2021,04,26,16,40,15.90
2021,04,26,16,41,15.90
2021,04,26,16,42,16.00
2021,04,26,16,43,16.00
2021,04,26,16,44,16.00
2021,04,26,16,45,16.00
2021,04,26,16,46,16.00
2021,04,26,16,47,16.00
2021,04,26,16,48,15.90
2021,04,26,16,49,15.90
2021,04,26,16,50,15.80
2021,04,26,16,51,15.80
2021,04,26,16,52,15.80
2021,04,26,16,53,15.80
2021,04,26,16,54,15.90
2021,04,26,16,55,15.90
2021,04,26,16,56,16.00
2021,04,26,16,57,15.90
2021,04,26,16,58,15.90
2021,04,26,16,59,15.80
2021,04,26,17,00,15.80
2021,04,26,17,01,15.70
2021,04,26,17,02,15.70
2021,04,26,17,03,15.60
2021,04,26,17,04,15.60
2021,04,26,17,05,15.70
2021,04,26,17,06,15.70
2021,04,26,17,07,15.80
2021,04,26,17,08,15.80
2021,04,26,17,09,15.90
2021,04,26,17,10,16.00
2021,04,26,17,11,16.00
2021,04,26,17,12,16.00
2021,04,26,17,13,16.00
2021,04,26,17,14,16.00
2021,04,26,17,15,16.00
2021,04,26,17,16,15.90
2021,04,26,17,17,15.90
2021,04,26,17,18,15.80
2021,04,26,17,19,15.80
2021,04,26,17,20,15.80
2021,04,26,17,21,15.70
2021,04,26,17,22,15.70
2021,04,26,17,23,15.60
2021,04,26,17,24,15.60
2021,04,26,17,25,15.60
2021,04,26,17,26,15.60
2021,04,26,17,27,15.60
2021,04,26,17,28,15.60
2021,04,26,17,29,15.60
2021,04,26,17,30,15.60
2021,04,26,17,31,15.50
2021,04,26,17,32,15.50
2021,04,26,17,33,15.50
2021,04,26,17,34,15.40
2021,04,26,17,35,15.40
2021,04,26,17,36,15.40
2021,04,26,17,37,15.40
2021,04,26,17,38,15.40
2021,04,26,17,39,15.50
2021,04,26,17,40,15.50
2021,04,26,17,41,15.50
2021,04,26,17,42,15.50
2021,04,26,17,43,15.60
2021,04,26,17,44,15.60
2021,04,26,17,45,15.50
2021,04,26,17,46,15.40
2021,04,26,17,47,15.40
2021,04,26,17,48,15.30
2021,04,26,17,49,15.40
2021,04,26,17,50,15.40
2021,04,26,17,51,15.40
2021,04,26,17,52,15.40
2021,04,26,17,53,15.40
2021,04,26,17,54,15.30
2021,04,26,17,55,15.30
2021,04,26,17,56,15.30
2021,04,26,17,57,15.30
2021,04,26,17,58,15.30
2021,04,26,17,59,15.30
2021,04,26,18,00,15.40
2021,04,26,18,01,15.40
2021,04,26,18,02,15.40
2021,04,26,18,03,15.50
2021,04,26,18,04,15.50
2021,04,26,18,05,15.60
2021,04,26,18,06,15.60
2021,04,26,18,07,15.50
2021,04,26,18,08,15.50
2021,04,26,18,09,15.40
2021,04,26,18,10,15.40
2021,04,26,18,11,15.30
2021,04,26,18,12,15.20
2021,04,26,18,13,15.20
2021,04,26,18,14,15.20
2021,04,26,18,15,15.20
2021,04,26,18,16,15.10
2021,04,26,18,17,15.00
2021,04,26,18,18,15.00
2021,04,26,18,19,15.00
2021,04,26,18,20,15.00
2021,04,26,18,21,15.00
2021,04,26,18,22,14.90
2021,04,26,18,23,14.90
2021,04,26,18,24,14.90
2021,04,26,18,25,14.90
2021,04,26,18,26,14.90
2021,04,26,18,27,15.00
2021,04,26,18,28,15.00
2021,04,26,18,29,14.90
2021,04,26,18,30,14.90
2021,04,26,18,31,14.90
2021,04,26,18,32,14.90
2021,04,26,18,33,14.80
2021,04,26,18,34,14.80
2021,04,26,18,35,14.80
2021,04,26,18,36,14.80
2021,04,26,18,37,14.80
2021,04,26,18,38,14.80
2021,04,26,18,39,14.70
2021,04,26,18,40,14.70
2021,04,26,18,41,14.70
2021,04,26,18,42,14.70
2021,04,26,18,43,14.70
2021,04,26,18,44,14.70
2021,04,26,18,45,14.60
2021,04,26,18,46,14.60
2021,04,26,18,47,14.60
2021,04,26,18,48,14.60
2021,04,26,18,49,14.50
2021,04,26,18,50,14.50
2021,04,26,18,51,14.50
2021,04,26,18,52,14.50
2021,04,26,18,53,14.50
2021,04,26,18,54,14.40
2021,04,26,18,55,14.40
2021,04,26,18,56,14.40
2021,04,26,18,57,14.30
2021,04,26,18,58,14.30
2021,04,26,18,59,14.30
2021,04,26,19,00,14.30
2021,04,26,19,01,14.20
2021,04,26,19,02,14.20
2021,04,26,19,03,14.20
2021,04,26,19,04,14.20
2021,04,26,19,05,14.10
2021,04,26,19,06,14.10
2021,04,26,19,07,14.00
2021,04,26,19,08,14.00
2021,04,26,19,09,13.90
2021,04,26,19,10,13.90
2021,04,26,19,11,13.80
2021,04,26,19,12,13.80
2021,04,26,19,13,13.80
2021,04,26,19,14,13.80
2021,04,26,19,15,13.80
2021,04,26,19,16,13.70
2021,04,26,19,17,13.70
2021,04,26,19,18,13.70
2021,04,26,19,19,13.70
2021,04,26,19,20,13.70
2021,04,26,19,21,13.60
2021,04,26,19,22,13.60
2021,04,26,19,23,13.60
2021,04,26,19,24,13.60
2021,04,26,19,25,13.50
2021,04,26,19,26,13.50
2021,04,26,19,27,13.50
2021,04,26,19,28,13.40
2021,04,26,19,29,13.40
2021,04,26,19,30,13.40
2021,04,26,19,31,13.40
2021,04,26,19,32,13.40
2021,04,26,19,33,13.40
2021,04,26,19,34,13.40
2021,04,26,19,35,13.30
2021,04,26,19,36,13.30
2021,04,26,19,37,13.30
2021,04,26,19,38,13.30
2021,04,26,19,39,13.30
2021,04,26,19,40,13.30
2021,04,26,19,41,13.20
2021,04,26,19,42,13.20
2021,04,26,19,43,13.20
2021,04,26,19,44,13.20
2021,04,26,19,45,13.10
2021,04,26,19,46,13.10
2021,04,26,19,47,13.10
2021,04,26,19,48,13.10
2021,04,26,19,49,13.00
2021,04,26,19,50,13.00
2021,04,26,19,51,12.90
2021,04,26,19,52,12.90
2021,04,26,19,53,12.90
2021,04,26,19,54,12.90
2021,04,26,19,55,12.80
2021,04,26,19,56,12.80
2021,04,26,19,57,12.80
2021,04,26,19,58,12.70
2021,04,26,19,59,12.70
2021,04,26,20,00,12.70
2021,04,26,20,01,12.70
2021,04,26,20,02,12.60
2021,04,26,20,03,12.60
2021,04,26,20,04,12.60
2021,04,26,20,05,12.60
2021,04,26,20,06,12.60
2021,04,26,20,07,12.50
2021,04,26,20,08,12.50
2021,04,26,20,09,12.50
2021,04,26,20,10,12.40
2021,04,26,20,11,12.40
2021,04,26,20,12,12.40
2021,04,26,20,13,12.40
2021,04,26,20,14,12.40
2021,04,26,20,15,12.40
2021,04,26,20,16,12.30
2021,04,26,20,17,12.30
2021,04,26,20,18,12.30
2021,04,26,20,19,12.30
2021,04,26,20,20,12.30
2021,04,26,20,21,12.30
2021,04,26,20,22,12.20
2021,04,26,20,23,12.20
2021,04,26,20,24,12.20
2021,04,26,20,25,12.20
2021,04,26,20,26,12.20
2021,04,26,20,27,12.20
2021,04,26,20,28,12.20
2021,04,26,20,29,12.10
2021,04,26,20,30,12.10
2021,04,26,20,31,12.10
2021,04,26,20,32,12.10
2021,04,26,20,33,12.10
2021,04,26,20,34,12.10
2021,04,26,20,35,12.10
2021,04,26,20,36,12.10
2021,04,26,20,37,12.00
2021,04,26,20,38,12.00
2021,04,26,20,39,12.00
2021,04,26,20,40,12.00
2021,04,26,20,41,11.90
2021,04,26,20,42,11.90
2021,04,26,20,43,11.90
2021,04,26,20,44,11.90
2021,04,26,20,45,11.90
2021,04,26,20,46,11.90
2021,04,26,20,47,11.80
2021,04,26,20,48,11.80
2021,04,26,20,49,11.80
2021,04,26,20,50,11.80
2021,04,26,20,51,11.80
2021,04,26,20,52,11.80
2021,04,26,20,53,11.80
2021,04,26,20,54,11.80
2021,04,26,20,55,11.80
2021,04,26,20,56,11.80
2021,04,26,20,57,11.80
2021,04,26,20,58,11.80
2021,04,26,20,59,11.80
2021,04,26,21,00,11.80
2021,04,26,21,01,11.70
2021,04,26,21,02,11.70
2021,04,26,21,03,11.70
2021,04,26,21,04,11.70
2021,04,26,21,05,11.70
2021,04,26,21,06,11.70
2021,04,26,21,07,11.70
2021,04,26,21,08,11.70
2021,04,26,21,09,11.70
2021,04,26,21,10,11.70
2021,04,26,21,11,11.60
2021,04,26,21,12,11.60
2021,04,26,21,13,11.60
2021,04,26,21,14,11.60
2021,04,26,21,15,11.60
2021,04,26,21,16,11.60
2021,04,26,21,17,11.60
2021,04,26,21,18,11.60
2021,04,26,21,19,11.60
2021,04,26,21,20,11.50
2021,04,26,21,21,11.50
2021,04,26,21,22,11.50
2021,04,26,21,23,11.50
2021,04,26,21,24,11.40
2021,04,26,21,25,11.40
2021,04,26,21,26,11.40
2021,04,26,21,27,11.40
2021,04,26,21,28,11.40
2021,04,26,21,29,11.40
2021,04,26,21,30,11.40
2021,04,26,21,31,11.40
2021,04,26,21,32,11.40
2021,04,26,21,33,11.30
2021,04,26,21,34,11.30
2021,04,26,21,35,11.30
2021,04,26,21,36,11.30
2021,04,26,21,37,11.30
2021,04,26,21,38,11.30
2021,04,26,21,39,11.30
2021,04,26,21,40,11.30
2021,04,26,21,41,11.30
2021,04,26,21,42,11.30
2021,04,26,21,43,11.20
2021,04,26,21,44,11.20
2021,04,26,21,45,11.20
2021,04,26,21,46,11.20
2021,04,26,21,47,11.20
2021,04,26,21,48,11.20
2021,04,26,21,49,11.20
2021,04,26,21,50,11.20
2021,04,26,21,51,11.20
2021,04,26,21,52,11.20
2021,04,26,21,53,11.20
2021,04,26,21,54,11.20
2021,04,26,21,55,11.20
2021,04,26,21,56,11.10
2021,04,26,21,57,11.10
2021,04,26,21,58,11.10
2021,04,26,21,59,11.10
2021,04,26,22,00,11.10
2021,04,26,22,01,11.10
2021,04,26,22,02,11.10
2021,04,26,22,03,11.10
2021,04,26,22,04,11.10
2021,04,26,22,05,11.00
2021,04,26,22,06,11.00
2021,04,26,22,07,11.00
2021,04,26,22,08,11.00
2021,04,26,22,09,11.00
2021,04,26,22,10,11.00
2021,04,26,22,11,11.00
2021,04,26,22,12,11.00
2021,04,26,22,13,11.00
2021,04,26,22,14,11.00
2021,04,26,22,15,10.90
2021,04,26,22,16,10.90
2021,04,26,22,17,10.90
2021,04,26,22,18,10.90
2021,04,26,22,19,10.90
2021,04,26,22,20,10.90
2021,04,26,22,21,10.90
2021,04,26,22,22,10.90
2021,04,26,22,23,10.90
2021,04,26,22,24,10.90
2021,04,26,22,25,10.90
2021,04,26,22,26,10.90
2021,04,26,22,27,10.90
2021,04,26,22,28,10.90
2021,04,26,22,29,10.90
2021,04,26,22,30,10.90
2021,04,26,22,31,10.90
2021,04,26,22,32,10.90
2021,04,26,22,33,10.90
2021,04,26,22,34,10.90
2021,04,26,22,35,10.90
2021,04,26,22,36,10.90
2021,04,26,22,37,10.90
2021,04,26,22,38,10.80
2021,04,26,22,39,10.80
2021,04,26,22,40,10.80
2021,04,26,22,41,10.80
2021,04,26,22,42,10.80
2021,04,26,22,43,10.80
2021,04,26,22,44,10.80
2021,04,26,22,45,10.80
2021,04,26,22,46,10.80
2021,04,26,22,47,10.80
2021,04,26,22,48,10.80
2021,04,26,22,49,10.90
2021,04,26,22,50,10.90
2021,04,26,22,51,10.80
2021,04,26,22,52,10.80
2021,04,26,22,53,10.80
2021,04,26,22,54,10.80
2021,04,26,22,55,10.80
2021,04,26,22,56,10.80
2021,04,26,22,57,10.80
2021,04,26,22,58,10.80
2021,04,26,22,59,10.80
2021,04,26,23,00,10.80
2021,04,26,23,01,10.80
2021,04,26,23,02,10.80
2021,04,26,23,03,10.80
2021,04,26,23,04,10.80
2021,04,26,23,05,10.80
2021,04,26,23,06,10.80
2021,04,26,23,07,10.80
2021,04,26,23,08,10.80
2021,04,26,23,09,10.80
2021,04,26,23,10,10.80
2021,04,26,23,11,10.80
2021,04,26,23,12,10.70
2021,04,26,23,13,10.70
2021,04,26,23,14,10.70
2021,04,26,23,15,10.70
2021,04,26,23,16,10.70
2021,04,26,23,17,10.70
2021,04,26,23,18,10.70
2021,04,26,23,19,10.70
2021,04,26,23,20,10.70
2021,04,26,23,21,10.70
2021,04,26,23,22,10.70
2021,04,26,23,23,10.70
2021,04,26,23,24,10.70
2021,04,26,23,25,10.70
2021,04,26,23,26,10.70
2021,04,26,23,27,10.70
2021,04,26,23,28,10.70
2021,04,26,23,29,10.70
2021,04,26,23,30,10.70
2021,04,26,23,31,10.70
2021,04,26,23,32,10.70
2021,04,26,23,33,10.70
